Tracking 30995 objects as of 5-Jul-2025
HD Live streaming from Space Station
objects crossing your sky now

OPS 4682 DEB

Track OPS 4682 DEB now!
10-day predictions


NORAD ID: 38412
Int'l Code: 1965-027DR
Perigee: 1,263.6 km
Apogee: 1,316.1 km
Inclination: 90.2 °
Period: 111.2 minutes
Semi major axis: 7660 km
RCS: 0.0074 m2 (small)
Launch date: April 3, 1965
Source: United States (US)
Launch site: AIR FORCE WESTERN TEST RANGE (AFWTR)

Note: This is SATELLITE DEBRIS
Your satellite tracking list
CZ-4C DEB
Track 1 satellite(s)




NASA's NSSDC Master Catalog

Two Line Element Set (TLE):
1 38412U 65027DR  25185.16814962  .00000340  00000-0  11884-2 0  9997
2 38412  90.2328 355.6700 0034312  85.5298 274.9740 12.94753525585622
Source of the keplerian elements: AFSPC